Time,TemperatureF,DewpointF,PressureIn,WindDirection,WindDirectionDegrees,WindSpeedMPH,WindSpeedGustMPH,Humidity,HourlyPrecipIn,Conditions,Clouds,dailyrainin,SoftwareType,DateUTC
2013-02-25 00:01:00,32.0,30.0,30.48,ENE,61,0.0,0.0,92,0.00,,,0.00,,2013-02-25 00:01:00,
2013-02-25 00:11:00,32.0,30.0,30.48,ENE,61,0.0,0.0,92,0.00,,,0.00,,2013-02-25 00:11:00,
2013-02-25 00:21:00,32.0,30.0,30.48,ENE,61,0.0,0.0,93,0.00,,,0.00,,2013-02-25 00:21:00,
2013-02-25 00:31:00,31.0,29.0,30.48,ENE,61,0.0,2.0,93,0.00,,,0.00,,2013-02-25 00:31:00,
2013-02-25 00:41:00,31.0,29.0,30.48,ENE,61,0.0,2.0,93,0.00,,,0.00,,2013-02-25 00:41:00,
2013-02-25 00:51:00,31.0,29.0,30.48,ENE,61,0.0,1.0,94,0.00,,,0.00,,2013-02-25 00:51:00,
2013-02-25 01:01:00,30.0,28.0,30.48,ENE,61,0.0,0.0,94,0.00,,,0.00,,2013-02-25 01:01:00,
2013-02-25 01:11:00,30.0,28.0,30.48,ENE,61,0.0,0.0,94,0.00,,,0.00,,2013-02-25 01:11:00,
2013-02-25 01:21:00,30.0,28.0,30.48,ENE,61,0.0,1.0,94,0.00,,,0.00,,2013-02-25 01:21:00,
2013-02-25 01:31:00,30.0,28.0,30.48,ENE,61,0.0,1.0,94,0.00,,,0.00,,2013-02-25 01:31:00,
2013-02-25 01:42:00,30.0,28.0,30.48,ENE,61,0.0,1.0,94,0.00,,,0.00,,2013-02-25 01:42:00,
2013-02-25 01:51:00,30.0,29.0,30.48,ENE,61,0.0,0.0,95,0.00,,,0.00,,2013-02-25 01:51:00,
2013-02-25 02:01:00,30.0,29.0,30.49,ENE,61,0.0,0.0,95,0.00,,,0.00,,2013-02-25 02:01:00,
2013-02-25 02:11:00,30.0,29.0,30.49,ENE,61,0.0,0.0,95,0.00,,,0.00,,2013-02-25 02:11:00,
2013-02-25 02:21:00,29.0,28.0,30.49,ENE,61,0.0,0.0,95,0.00,,,0.00,,2013-02-25 02:21:00,
2013-02-25 02:31:00,30.0,29.0,30.49,ENE,61,0.0,0.0,95,0.00,,,0.00,,2013-02-25 02:31:00,
2013-02-25 02:41:00,30.0,29.0,30.49,ENE,61,0.0,0.0,95,0.00,,,0.00,,2013-02-25 02:41:00,
2013-02-25 02:52:00,29.0,28.0,30.49,ENE,61,0.0,0.0,95,0.00,,,0.00,,2013-02-25 02:52:00,
2013-02-25 03:01:00,29.0,28.0,30.50,ENE,61,0.0,0.0,95,0.00,,,0.00,,2013-02-25 03:01:00,
2013-02-25 03:11:00,29.0,28.0,30.50,ENE,61,0.0,0.0,95,0.00,,,0.00,,2013-02-25 03:11:00,
2013-02-25 03:21:00,31.0,30.0,30.50,ENE,61,0.0,0.0,95,0.00,,,0.00,,2013-02-25 03:21:00,
2013-02-25 03:31:00,31.0,30.0,30.51,ENE,61,0.0,1.0,95,0.00,,,0.00,,2013-02-25 03:31:00,
2013-02-25 03:41:00,31.0,30.0,30.51,ENE,61,0.0,1.0,95,0.00,,,0.00,,2013-02-25 03:41:00,
2013-02-25 03:51:00,31.0,30.0,30.51,ENE,61,0.0,0.0,95,0.00,,,0.00,,2013-02-25 03:51:00,
2013-02-25 04:01:00,31.0,30.0,30.51,ESE,109,0.0,0.0,95,0.00,,,0.00,,2013-02-25 04:01:00,
2013-02-25 04:11:00,31.0,30.0,30.51,ESE,109,0.0,0.0,95,0.00,,,0.00,,2013-02-25 04:11:00,
2013-02-25 04:21:00,31.0,30.0,30.52,ESE,109,0.0,0.0,95,0.00,,,0.00,,2013-02-25 04:21:00,
2013-02-25 04:31:00,31.0,30.0,30.52,ESE,110,0.0,2.0,95,0.00,,,0.00,,2013-02-25 04:31:00,
2013-02-25 04:41:00,31.0,30.0,30.52,ESE,110,0.0,2.0,95,0.00,,,0.00,,2013-02-25 04:41:00,
2013-02-25 04:51:00,31.0,30.0,30.52,ESE,110,0.0,0.0,95,0.00,,,0.00,,2013-02-25 04:51:00,
2013-02-25 05:01:00,31.0,30.0,30.51,ESE,110,0.0,0.0,95,0.00,,,0.00,,2013-02-25 05:01:00,
2013-02-25 05:11:00,31.0,30.0,30.51,ESE,110,0.0,0.0,95,0.00,,,0.00,,2013-02-25 05:11:00,
2013-02-25 05:22:00,30.0,29.0,30.52,ESE,110,0.0,0.0,95,0.00,,,0.00,,2013-02-25 05:22:00,
2013-02-25 05:31:00,29.0,28.0,30.52,ESE,110,0.0,0.0,95,0.00,,,0.00,,2013-02-25 05:31:00,
2013-02-25 05:41:00,29.0,28.0,30.52,ESE,110,0.0,0.0,95,0.00,,,0.00,,2013-02-25 05:41:00,
2013-02-25 05:52:00,29.0,28.0,30.51,ESE,110,0.0,0.0,95,0.00,,,0.00,,2013-02-25 05:52:00,
2013-02-25 06:02:00,29.0,28.0,30.52,ESE,110,0.0,0.0,95,0.00,,,0.00,,2013-02-25 06:02:00,
2013-02-25 06:11:00,29.0,28.0,30.52,ESE,110,0.0,0.0,95,0.00,,,0.00,,2013-02-25 06:11:00,
2013-02-25 06:21:00,28.0,27.0,30.53,ESE,110,0.0,0.0,95,0.00,,,0.00,,2013-02-25 06:21:00,
2013-02-25 06:31:00,28.0,27.0,30.53,ESE,110,0.0,0.0,95,0.00,,,0.00,,2013-02-25 06:31:00,
2013-02-25 06:41:00,28.0,27.0,30.53,ESE,110,0.0,0.0,95,0.00,,,0.00,,2013-02-25 06:41:00,
2013-02-25 06:51:00,28.0,27.0,30.53,ESE,110,0.0,0.0,95,0.00,,,0.00,,2013-02-25 06:51:00,
2013-02-25 07:01:00,28.0,27.0,30.54,ESE,110,0.0,0.0,95,0.00,,,0.00,,2013-02-25 07:01:00,
2013-02-25 07:11:00,28.0,27.0,30.54,ESE,110,0.0,1.0,95,0.00,,,0.00,,2013-02-25 07:11:00,
2013-02-25 07:21:00,28.0,27.0,30.54,ESE,110,0.0,1.0,95,0.00,,,0.00,,2013-02-25 07:21:00,
2013-02-25 07:31:00,28.0,27.0,30.54,ESE,110,0.0,0.0,95,0.00,,,0.00,,2013-02-25 07:31:00,
2013-02-25 07:41:00,28.0,27.0,30.54,ESE,110,0.0,0.0,95,0.00,,,0.00,,2013-02-25 07:41:00,
2013-02-25 07:51:00,28.0,27.0,30.54,East,98,0.0,1.0,95,0.00,,,0.00,,2013-02-25 07:51:00,
2013-02-25 08:01:00,27.0,26.0,30.55,ESE,104,0.0,0.0,95,0.00,,,0.00,,2013-02-25 08:01:00,
2013-02-25 08:11:00,27.0,26.0,30.55,ESE,104,0.0,0.0,95,0.00,,,0.00,,2013-02-25 08:11:00,
2013-02-25 08:21:00,28.0,27.0,30.55,South,172,0.0,1.0,95,0.00,,,0.00,,2013-02-25 08:21:00,
2013-02-25 08:31:00,29.0,28.0,30.56,SSW,198,0.0,0.0,95,0.00,,,0.00,,2013-02-25 08:31:00,
2013-02-25 08:41:00,29.0,28.0,30.56,SSW,198,0.0,0.0,95,0.00,,,0.00,,2013-02-25 08:41:00,
2013-02-25 08:52:00,29.0,28.0,30.56,SSE,167,0.0,1.0,95,0.00,,,0.00,,2013-02-25 08:52:00,
2013-02-25 09:01:00,30.0,29.0,30.57,South,185,1.0,2.0,95,0.00,,,0.00,,2013-02-25 09:01:00,
2013-02-25 09:12:00,30.0,29.0,30.57,South,185,1.0,2.0,95,0.00,,,0.00,,2013-02-25 09:12:00,
2013-02-25 09:21:00,31.0,30.0,30.56,South,185,0.0,2.0,95,0.00,,,0.00,,2013-02-25 09:21:00,
2013-02-25 09:31:00,33.0,32.0,30.57,South,185,0.0,1.0,95,0.00,,,0.00,,2013-02-25 09:31:00,
2013-02-25 09:41:00,33.0,32.0,30.57,South,185,0.0,1.0,95,0.00,,,0.00,,2013-02-25 09:41:00,
2013-02-25 09:51:00,34.0,33.0,30.57,SW,219,0.0,1.0,95,0.00,,,0.00,,2013-02-25 09:51:00,
2013-02-25 10:01:00,36.0,34.0,30.57,SSE,162,1.0,2.0,94,0.00,,,0.00,,2013-02-25 10:01:00,
2013-02-25 10:11:00,36.0,34.0,30.57,SSE,162,1.0,2.0,94,0.00,,,0.00,,2013-02-25 10:11:00,
2013-02-25 10:21:00,37.0,35.0,30.57,ESE,123,1.0,2.0,92,0.00,,,0.00,,2013-02-25 10:21:00,
2013-02-25 10:31:00,39.0,36.0,30.58,East,88,1.0,7.0,88,0.00,,,0.00,,2013-02-25 10:31:00,
2013-02-25 10:41:00,39.0,36.0,30.58,East,88,1.0,7.0,88,0.00,,,0.00,,2013-02-25 10:41:00,
2013-02-25 10:52:00,39.0,35.0,30.57,ENE,75,1.0,7.0,84,0.00,,,0.00,,2013-02-25 10:52:00,
2013-02-25 11:01:00,40.0,36.0,30.57,East,80,1.0,6.0,84,0.00,,,0.00,,2013-02-25 11:01:00,
2013-02-25 11:11:00,40.0,36.0,30.57,East,80,1.0,6.0,84,0.00,,,0.00,,2013-02-25 11:11:00,
2013-02-25 11:21:00,41.0,36.0,30.57,ENE,74,2.0,5.0,83,0.00,,,0.00,,2013-02-25 11:21:00,
2013-02-25 11:32:00,41.0,36.0,30.57,ESE,106,2.0,7.0,83,0.00,,,0.00,,2013-02-25 11:32:00,
2013-02-25 11:42:00,41.0,36.0,30.57,ESE,106,2.0,7.0,83,0.00,,,0.00,,2013-02-25 11:42:00,
2013-02-25 11:52:00,41.0,36.0,30.57,ESE,106,2.0,7.0,83,0.00,,,0.00,,2013-02-25 11:52:00,
2013-02-25 12:01:00,42.0,37.0,30.58,ESE,123,1.0,3.0,82,0.00,,,0.00,,2013-02-25 12:01:00,
2013-02-25 12:11:00,42.0,37.0,30.58,ESE,123,1.0,3.0,82,0.00,,,0.00,,2013-02-25 12:11:00,
2013-02-25 12:21:00,42.0,37.0,30.58,ESE,123,1.0,3.0,82,0.00,,,0.00,,2013-02-25 12:21:00,
2013-02-25 12:32:00,43.0,37.0,30.58,ENE,78,5.0,10.0,80,0.00,,,0.00,,2013-02-25 12:32:00,
2013-02-25 12:41:00,43.0,37.0,30.58,ENE,78,5.0,10.0,80,0.00,,,0.00,,2013-02-25 12:41:00,
2013-02-25 12:55:00,42.0,37.0,30.58,ESE,121,1.0,7.0,81,0.00,,,0.00,,2013-02-25 12:55:00,
2013-02-25 13:01:00,43.0,37.0,30.58,ENE,63,2.0,8.0,79,0.00,,,0.00,,2013-02-25 13:01:00,
2013-02-25 13:11:00,43.0,37.0,30.58,ENE,63,2.0,8.0,79,0.00,,,0.00,,2013-02-25 13:11:00,
2013-02-25 13:22:00,42.0,36.0,30.58,ESE,121,2.0,7.0,80,0.00,,,0.00,,2013-02-25 13:22:00,
2013-02-25 13:31:00,44.0,37.0,30.58,SE,132,3.0,9.0,77,0.00,,,0.00,,2013-02-25 13:31:00,
2013-02-25 13:41:00,44.0,37.0,30.58,SE,132,3.0,9.0,77,0.00,,,0.00,,2013-02-25 13:41:00,
2013-02-25 13:51:00,44.0,38.0,30.58,ESE,105,2.0,7.0,78,0.00,,,0.00,,2013-02-25 13:51:00,
2013-02-25 14:02:00,45.0,37.0,30.58,ENE,70,4.0,9.0,74,0.00,,,0.00,,2013-02-25 14:02:00,
2013-02-25 14:13:00,45.0,37.0,30.58,ENE,70,4.0,9.0,74,0.00,,,0.00,,2013-02-25 14:13:00,
2013-02-25 14:21:00,45.0,37.0,30.57,NE,44,2.0,7.0,74,0.00,,,0.00,,2013-02-25 14:21:00,
2013-02-25 14:31:00,45.0,38.0,30.57,NE,55,4.0,10.0,75,0.00,,,0.00,,2013-02-25 14:31:00,
2013-02-25 14:41:00,45.0,38.0,30.57,NE,55,4.0,10.0,75,0.00,,,0.00,,2013-02-25 14:41:00,
2013-02-25 14:52:00,45.0,37.0,30.56,ENE,74,4.0,10.0,74,0.00,,,0.00,,2013-02-25 14:52:00,
2013-02-25 15:02:00,45.0,37.0,30.57,East,90,2.0,8.0,74,0.00,,,0.00,,2013-02-25 15:02:00,
2013-02-25 15:11:00,45.0,37.0,30.57,East,90,2.0,8.0,74,0.00,,,0.00,,2013-02-25 15:11:00,
2013-02-25 15:21:00,46.0,38.0,30.57,East,101,2.0,8.0,73,0.00,,,0.00,,2013-02-25 15:21:00,
2013-02-25 15:32:00,46.0,37.0,30.57,ESE,105,2.0,10.0,72,0.00,,,0.00,,2013-02-25 15:32:00,
2013-02-25 15:41:00,46.0,37.0,30.57,ESE,105,2.0,10.0,72,0.00,,,0.00,,2013-02-25 15:41:00,
2013-02-25 15:51:00,45.0,37.0,30.57,ENE,75,2.0,9.0,73,0.00,,,0.00,,2013-02-25 15:51:00,
2013-02-25 16:01:00,45.0,37.0,30.57,ESE,113,2.0,10.0,73,0.00,,,0.00,,2013-02-25 16:01:00,
2013-02-25 16:11:00,45.0,37.0,30.57,ESE,113,2.0,10.0,73,0.00,,,0.00,,2013-02-25 16:11:00,
2013-02-25 16:21:00,44.0,36.0,30.57,ESE,109,2.0,7.0,73,0.00,,,0.00,,2013-02-25 16:21:00,
2013-02-25 16:31:00,44.0,37.0,30.57,East,95,3.0,8.0,75,0.00,,,0.00,,2013-02-25 16:31:00,
2013-02-25 16:41:00,44.0,37.0,30.57,East,95,3.0,8.0,75,0.00,,,0.00,,2013-02-25 16:41:00,
2013-02-25 16:51:00,43.0,36.0,30.57,East,83,2.0,6.0,77,0.00,,,0.00,,2013-02-25 16:51:00,
2013-02-25 17:01:00,43.0,37.0,30.57,ESE,119,2.0,7.0,78,0.00,,,0.00,,2013-02-25 17:01:00,
2013-02-25 17:11:00,43.0,37.0,30.57,ESE,119,2.0,7.0,78,0.00,,,0.00,,2013-02-25 17:11:00,
2013-02-25 17:21:00,42.0,36.0,30.57,ESE,116,1.0,7.0,79,0.00,,,0.00,,2013-02-25 17:21:00,
2013-02-25 17:31:00,42.0,36.0,30.57,East,94,2.0,7.0,80,0.00,,,0.00,,2013-02-25 17:31:00,
2013-02-25 17:41:00,42.0,36.0,30.57,East,94,2.0,7.0,80,0.00,,,0.00,,2013-02-25 17:41:00,
2013-02-25 17:52:00,41.0,36.0,30.58,ENE,76,2.0,6.0,82,0.00,,,0.00,,2013-02-25 17:52:00,
2013-02-25 18:01:00,40.0,36.0,30.58,ESE,106,1.0,5.0,84,0.00,,,0.00,,2013-02-25 18:01:00,
2013-02-25 18:12:00,40.0,36.0,30.58,ESE,106,1.0,5.0,84,0.00,,,0.00,,2013-02-25 18:12:00,
2013-02-25 18:21:00,39.0,35.0,30.58,East,95,1.0,3.0,85,0.00,,,0.00,,2013-02-25 18:21:00,
2013-02-25 18:32:00,38.0,34.0,30.59,East,98,1.0,5.0,86,0.00,,,0.00,,2013-02-25 18:32:00,
2013-02-25 18:41:00,38.0,34.0,30.59,East,98,1.0,5.0,86,0.00,,,0.00,,2013-02-25 18:41:00,
2013-02-25 18:51:00,38.0,34.0,30.59,ENE,78,1.0,3.0,86,0.00,,,0.00,,2013-02-25 18:51:00,
2013-02-25 19:01:00,37.0,34.0,30.59,ENE,69,1.0,3.0,88,0.00,,,0.00,,2013-02-25 19:01:00,
2013-02-25 19:11:00,37.0,34.0,30.59,ENE,69,1.0,3.0,88,0.00,,,0.00,,2013-02-25 19:11:00,
2013-02-25 19:21:00,37.0,34.0,30.59,NE,40,2.0,5.0,89,0.00,,,0.00,,2013-02-25 19:21:00,
2013-02-25 19:31:00,37.0,34.0,30.60,NE,43,3.0,5.0,89,0.00,,,0.00,,2013-02-25 19:31:00,
2013-02-25 19:41:00,37.0,34.0,30.60,NE,43,3.0,5.0,89,0.00,,,0.00,,2013-02-25 19:41:00,
2013-02-25 19:52:00,37.0,34.0,30.60,NE,43,3.0,5.0,89,0.00,,,0.00,,2013-02-25 19:52:00,
2013-02-25 20:01:00,37.0,34.0,30.60,NE,34,1.0,3.0,89,0.00,,,0.00,,2013-02-25 20:01:00,
2013-02-25 20:11:00,37.0,34.0,30.60,NE,34,1.0,3.0,89,0.00,,,0.00,,2013-02-25 20:11:00,
2013-02-25 20:21:00,35.0,32.0,30.60,NE,34,0.0,2.0,90,0.00,,,0.00,,2013-02-25 20:21:00,
2013-02-25 20:31:00,35.0,33.0,30.61,ENE,74,0.0,3.0,91,0.00,,,0.00,,2013-02-25 20:31:00,
2013-02-25 20:41:00,35.0,33.0,30.61,ENE,74,0.0,3.0,91,0.00,,,0.00,,2013-02-25 20:41:00,
2013-02-25 20:52:00,35.0,33.0,30.61,ENE,78,1.0,5.0,91,0.00,,,0.00,,2013-02-25 20:52:00,
2013-02-25 21:01:00,35.0,33.0,30.61,ENE,57,1.0,5.0,92,0.00,,,0.00,,2013-02-25 21:01:00,
2013-02-25 21:11:00,35.0,33.0,30.61,ENE,57,1.0,5.0,92,0.00,,,0.00,,2013-02-25 21:11:00,
2013-02-25 21:21:00,35.0,33.0,30.61,NE,55,1.0,3.0,92,0.00,,,0.00,,2013-02-25 21:21:00,
2013-02-25 21:31:00,35.0,33.0,30.61,NE,51,2.0,3.0,93,0.00,,,0.00,,2013-02-25 21:31:00,
2013-02-25 21:41:00,35.0,33.0,30.61,NE,51,2.0,3.0,93,0.00,,,0.00,,2013-02-25 21:41:00,
2013-02-25 21:51:00,34.0,32.0,30.61,East,88,1.0,5.0,93,0.00,,,0.00,,2013-02-25 21:51:00,
2013-02-25 22:01:00,33.0,31.0,30.62,East,90,1.0,3.0,93,0.00,,,0.00,,2013-02-25 22:01:00,
2013-02-25 22:11:00,33.0,31.0,30.62,East,90,1.0,3.0,93,0.00,,,0.00,,2013-02-25 22:11:00,
2013-02-25 22:21:00,33.0,31.0,30.62,East,90,1.0,5.0,94,0.00,,,0.00,,2013-02-25 22:21:00,
2013-02-25 22:31:00,31.0,29.0,30.62,ENE,60,1.0,3.0,93,0.00,,,0.00,,2013-02-25 22:31:00,
2013-02-25 22:41:00,31.0,29.0,30.62,ENE,60,1.0,3.0,93,0.00,,,0.00,,2013-02-25 22:41:00,
2013-02-25 22:51:00,33.0,31.0,30.62,NE,51,1.0,5.0,94,0.00,,,0.00,,2013-02-25 22:51:00,
2013-02-25 23:01:00,33.0,31.0,30.62,East,98,1.0,5.0,94,0.00,,,0.00,,2013-02-25 23:01:00,
2013-02-25 23:11:00,33.0,31.0,30.62,East,98,1.0,5.0,94,0.00,,,0.00,,2013-02-25 23:11:00,
2013-02-25 23:22:00,32.0,30.0,30.62,East,98,0.0,2.0,94,0.00,,,0.00,,2013-02-25 23:22:00,
2013-02-25 23:31:00,31.0,29.0,30.63,East,94,0.0,2.0,94,0.00,,,0.00,,2013-02-25 23:31:00,
2013-02-25 23:41:00,31.0,29.0,30.63,East,94,0.0,2.0,94,0.00,,,0.00,,2013-02-25 23:41:00,
2013-02-25 23:52:00,31.0,29.0,30.63,East,94,0.0,1.0,94,0.00,,,0.00,,2013-02-25 23:52:00,